Tracking 19636 objects as of 24-May-2019
HD Live streaming from Space Station
objects crossing your sky now

ZY 3

Track ZY 3 now!
10-day predictions
ZY 3 is classified as:


NORAD ID: 38046
Int'l Code: 2012-001A
Perigee: 505.9 km
Apogee: 512.6 km
Inclination: 97.5 °
Period: 94.7 minutes
Semi major axis: 6880 km
RCS: 5.391 m2 (large)
Launch date: January 9, 2012
Source: People's Republic of China (PRC)
Launch site: Taiyaun Space Center, China (TSC)
aabbcc
Your satellite tracking list
Your tracking list is empty




NASA's NSSDC Master Catalog

Two Line Element Set (TLE):
1 38046U 12001A   19144.09835100  .00000419  00000-0  21858-4 0  9992
2 38046  97.4548 218.0275 0004888 107.6525 339.9070 15.21242654409274
Source of the keplerian elements: AFSPC